When you browse on this site, cookies collect data to enhance your experience and personalize the content and advertising you see.
Visit our Privacy Policy to learn more. By continuing to use the site, you agree to this use of cookies and data.
  • In Österreich
  • Länderverzeichnis
  • Für 7 Tage
  • Wassertemperatur
  • Satellitenkarten
  • Wetterkarte
  • News
  • Widgets
  • user-avatar
    Anmelden

    Stündliche Wetter Staunton

    Heute, 23 April, Dienstag

    Zeit Temperatur Niederschläge Wind Luftdruck Luftfeuchtigkeit
    00:00 +11°C° 0 mm 1 m/S 724 mmHg 79%
    01:00 +10°C° 0 mm 1 m/S 724 mmHg 80%
    02:00 +10°C° 0 mm 1 m/S 724 mmHg 80%
    03:00 +10°C° 0 mm 1 m/S 724 mmHg 81%
    04:00 +10°C° 0 mm 1 m/S 723 mmHg 81%
    05:00 +11°C° 0 mm 1 m/S 723 mmHg 78%
    06:00 +12°C° 0 mm 1 m/S 723 mmHg 75%
    07:00 +13°C° 0 mm 1 m/S 723 mmHg 72%
    08:00 +16°C° 0 mm 1 m/S 723 mmHg 65%
    09:00 +19°C° 0 mm 2 m/S 723 mmHg 57%
    10:00 +23°C° 0 mm 2 m/S 723 mmHg 49%
    11:00 +24°C° 0 mm 3 m/S 723 mmHg 48%
    12:00 +25°C° 0 mm 3 m/S 722 mmHg 46%
    13:00 +27°C° 0 mm 4 m/S 722 mmHg 44%
    14:00 +27°C° 0 mm 4 m/S 721 mmHg 45%
    15:00 +27°C° 0 mm 4 m/S 721 mmHg 45%
    16:00 +28°C° 0 mm 4 m/S 720 mmHg 45%
    17:00 +25°C° 0 mm 4 m/S 720 mmHg 52%
    18:00 +22°C° 0 mm 3 m/S 720 mmHg 59%
    19:00 +20°C° 0 mm 3 m/S 719 mmHg 66%
    20:00 +19°C° 0 mm 3 m/S 719 mmHg 67%
    21:00 +18°C° 0 mm 3 m/S 719 mmHg 68%
    22:00 +17°C° 0 mm 3 m/S 719 mmHg 69%
    23:00 +16°C° 0 mm 3 m/S 719 mmHg 75%

    Morgen, 24 April, Mittwoch

    Zeit Temperatur Niederschläge Wind Luftdruck Luftfeuchtigkeit
    00:00 +16°C° 0 mm 3 m/S 719 mmHg 80%
    01:00 +14°C° 0 mm 3 m/S 719 mmHg 85%
    02:00 +15°C° 0 mm 2 m/S 719 mmHg 87%
    03:00 +15°C° 0 mm 2 m/S 719 mmHg 89%
    04:00 +15°C° 0 mm 1 m/S 719 mmHg 90%
    05:00 +15°C° 0 mm 1 m/S 719 mmHg 90%
    06:00 +16°C° 0 mm 1 m/S 719 mmHg 89%
    07:00 +16°C° 0 mm 1 m/S 720 mmHg 88%
    08:00 +17°C° 0 mm 2 m/S 720 mmHg 80%
    09:00 +19°C° 0 mm 2 m/S 720 mmHg 71%
    10:00 +20°C° 0 mm 3 m/S 721 mmHg 63%
    11:00 +21°C° 0 mm 3 m/S 721 mmHg 58%
    12:00 +22°C° 0 mm 4 m/S 721 mmHg 54%
    13:00 +23°C° 0 mm 4 m/S 721 mmHg 49%
    14:00 +23°C° 0 mm 4 m/S 720 mmHg 48%
    15:00 +23°C° 0 mm 4 m/S 720 mmHg 47%
    16:00 +23°C° 0 mm 4 m/S 719 mmHg 46%
    17:00 +21°C° 0 mm 3 m/S 719 mmHg 54%
    18:00 +18°C° 0 mm 3 m/S 719 mmHg 62%
    19:00 +16°C° 0 mm 2 m/S 719 mmHg 69%
    20:00 +15°C° 0 mm 2 m/S 720 mmHg 71%
    21:00 +14°C° 0 mm 1 m/S 720 mmHg 73%
    22:00 +13°C° 0 mm 1 m/S 720 mmHg 76%
    23:00 +13°C° 0 mm 1 m/S 720 mmHg 78%

    übermorgen, 25 April, Donnerstag

    Zeit Temperatur Niederschläge Wind Luftdruck Luftfeuchtigkeit
    00:00 +12°C° 0 mm 1 m/S 720 mmHg 80%
    01:00 +11°C° 0 mm 0 m/S 720 mmHg 81%
    02:00 +11°C° 0 mm 0 m/S 720 mmHg 83%
    03:00 +10°C° 0 mm 0 m/S 720 mmHg 85%
    04:00 +10°C° 0 mm 0 m/S 720 mmHg 87%
    05:00 +11°C° 0 mm 0 m/S 720 mmHg 85%
    06:00 +12°C° 0 mm 0 m/S 720 mmHg 82%
    07:00 +14°C° 0 mm 1 m/S 721 mmHg 80%
    08:00 +15°C° 0 mm 1 m/S 721 mmHg 74%
    09:00 +17°C° 0 mm 2 m/S 721 mmHg 69%
    10:00 +18°C° 0 mm 3 m/S 721 mmHg 64%
    11:00 +19°C° 0 mm 3 m/S 721 mmHg 63%
    12:00 +20°C° 0 mm 3 m/S 720 mmHg 62%
    13:00 +21°C° 0 mm 3 m/S 720 mmHg 61%
    14:00 +21°C° 0.2 mm 3 m/S 720 mmHg 67%
    15:00 +20°C° 0.2 mm 3 m/S 719 mmHg 73%
    16:00 +19°C° 0.2 mm 3 m/S 719 mmHg 79%
    17:00 +18°C° 0 mm 3 m/S 718 mmHg 83%
    18:00 +18°C° 0 mm 2 m/S 718 mmHg 87%
    19:00 +17°C° 0 mm 2 m/S 718 mmHg 90%
    20:00 +17°C° 0 mm 2 m/S 718 mmHg 91%
    21:00 +16°C° 0 mm 2 m/S 718 mmHg 93%
    22:00 +16°C° 0 mm 1 m/S 718 mmHg 94%
    23:00 +16°C° 0 mm 1 m/S 717 mmHg 94%

    26 April, Freitag

    Zeit Temperatur Niederschläge Wind Luftdruck Luftfeuchtigkeit
    00:00 +15°C° 0 mm 1 m/S 716 mmHg 95%
    01:00 +15°C° 0 mm 1 m/S 716 mmHg 95%
    02:00 +15°C° 1.6 mm 2 m/S 715 mmHg 96%
    03:00 +15°C° 1.6 mm 2 m/S 715 mmHg 96%
    04:00 +16°C° 1.6 mm 2 m/S 715 mmHg 96%
    05:00 +16°C° 0.1 mm 2 m/S 715 mmHg 95%
    06:00 +16°C° 0.1 mm 2 m/S 714 mmHg 95%
    07:00 +16°C° 0.1 mm 3 m/S 714 mmHg 94%
    08:00 +16°C° 0.3 mm 3 m/S 714 mmHg 92%
    09:00 +15°C° 0.3 mm 4 m/S 715 mmHg 90%
    10:00 +15°C° 0.3 mm 4 m/S 715 mmHg 88%
    11:00 +16°C° 0.1 mm 5 m/S 716 mmHg 78%
    12:00 +19°C° 0.1 mm 6 m/S 716 mmHg 68%
    13:00 +20°C° 0.1 mm 8 m/S 717 mmHg 59%
    14:00 +18°C° 0 mm 7 m/S 717 mmHg 55%
    15:00 +18°C° 0 mm 7 m/S 717 mmHg 52%
    16:00 +17°C° 0 mm 6 m/S 717 mmHg 48%
    17:00 +16°C° 0 mm 5 m/S 718 mmHg 53%
    18:00 +14°C° 0 mm 4 m/S 719 mmHg 57%
    19:00 +12°C° 0 mm 3 m/S 719 mmHg 61%
    20:00 +12°C° 0 mm 2 m/S 720 mmHg 64%
    21:00 +10°C° 0 mm 2 m/S 720 mmHg 66%
    22:00 +9°C° 0 mm 2 m/S 721 mmHg 69%
    23:00 +8°C° 0 mm 2 m/S 721 mmHg 71%

    27 April, Samstag

    Zeit Temperatur Niederschläge Wind Luftdruck Luftfeuchtigkeit
    00:00 +8°C° 0 mm 2 m/S 721 mmHg 74%
    01:00 +7°C° 0 mm 2 m/S 722 mmHg 77%
    02:00 +6°C° 0 mm 2 m/S 722 mmHg 76%
    03:00 +6°C° 0 mm 1 m/S 722 mmHg 76%
    04:00 +5°C° 0 mm 1 m/S 722 mmHg 75%
    05:00 +6°C° 0 mm 1 m/S 723 mmHg 71%
    06:00 +7°C° 0 mm 1 m/S 723 mmHg 67%
    07:00 +8°C° 0 mm 1 m/S 724 mmHg 63%
    08:00 +11°C° 0 mm 1 m/S 724 mmHg 54%
    09:00 +13°C° 0 mm 1 m/S 725 mmHg 45%
    10:00 +16°C° 0 mm 1 m/S 725 mmHg 37%
    11:00 +18°C° 0 mm 1 m/S 724 mmHg 35%
    12:00 +18°C° 0 mm 2 m/S 724 mmHg 34%
    13:00 +19°C° 0 mm 2 m/S 723 mmHg 33%
    14:00 +19°C° 0 mm 3 m/S 723 mmHg 36%
    15:00 +19°C° 0 mm 3 m/S 722 mmHg 39%
    16:00 +19°C° 0 mm 4 m/S 722 mmHg 42%
    17:00 +17°C° 0 mm 3 m/S 722 mmHg 49%
    18:00 +14°C° 0 mm 3 m/S 722 mmHg 56%
    19:00 +14°C° 0 mm 2 m/S 722 mmHg 63%
    20:00 +13°C° 0 mm 2 m/S 722 mmHg 62%
    21:00 +13°C° 0 mm 2 m/S 722 mmHg 62%
    22:00 +12°C° 0 mm 2 m/S 722 mmHg 61%
    23:00 +12°C° 0 mm 2 m/S 722 mmHg 64%

    28 April, Sonntag

    Zeit Temperatur Niederschläge Wind Luftdruck Luftfeuchtigkeit
    00:00 +10°C° 0 mm 2 m/S 721 mmHg 68%
    01:00 +9°C° 0 mm 2 m/S 721 mmHg 71%
    02:00 +9°C° 0 mm 2 m/S 721 mmHg 74%
    03:00 +9°C° 0 mm 2 m/S 721 mmHg 76%
    04:00 +8°C° 0 mm 2 m/S 721 mmHg 79%
    05:00 +9°C° 0 mm 2 m/S 721 mmHg 78%
    06:00 +10°C° 0 mm 3 m/S 721 mmHg 77%
    07:00 +11°C° 0 mm 3 m/S 721 mmHg 76%
    08:00 +14°C° 0 mm 4 m/S 722 mmHg 69%
    09:00 +17°C° 0 mm 5 m/S 722 mmHg 62%
    10:00 +21°C° 0 mm 5 m/S 722 mmHg 56%
    11:00 +22°C° 0 mm 5 m/S 722 mmHg 54%
    12:00 +23°C° 0 mm 5 m/S 722 mmHg 53%
    13:00 +25°C° 0 mm 5 m/S 722 mmHg 51%
    14:00 +25°C° 0 mm 4 m/S 722 mmHg 53%
    15:00 +25°C° 0 mm 4 m/S 722 mmHg 54%
    16:00 +25°C° 0 mm 3 m/S 722 mmHg 55%
    17:00 +23°C° 0 mm 2 m/S 722 mmHg 62%
    18:00 +20°C° 0 mm 2 m/S 722 mmHg 69%
    19:00 +19°C° 0 mm 1 m/S 722 mmHg 76%
    20:00 +18°C° 0 mm 1 m/S 723 mmHg 78%
    21:00 +16°C° 0 mm 1 m/S 723 mmHg 81%
    22:00 +15°C° 0 mm 1 m/S 724 mmHg 83%
    23:00 +14°C° 0 mm 1 m/S 724 mmHg 85%
    Mehr zeigen